Geostationary
NORAD ID: 33462
Int'l Code: 2008-065D
Perigee: 297.7 km
Apogee: 34,955.3 km
Inclination: 4.2 °
Period: 616.6 minutes
Semi major axis: 23997 km
Launch date: December 20, 2008
Source: France (FR)
Note: This is a ROCKET BODY
Two Line Element Set (TLE):
1 33462U 08065D 13143.78870904 .00001703 00000-0 97422-3 0 9271
2 33462 004.1918 286.5446 7221085 091.0860 344.7002 02.33535971663741
Source: AFSPC
NASA's NSSDC Master Catalog entry for ARIANE 5 R/B